SCP
0 0 0 0 0 0 0 0 0 1 1 1 1 1 2 2 1 2 2 2 3 3 3 2 2 2 1 1 1 1 1 1 1 1 1 1 1 1 1 1 1 1 1 1 1 1 1 1 1
0 0 0 0 0 0 0 0 1 1 1 1 1 1 1 1 1 1 2 2 3 3 3 3 3 2 2 1 1 1 1 1 1 1 1 1 1 1 1 1 1 1 1 1 1 1 1 0 0
0 0 0 0 0 0 0 1 1 1 2 2 2 2 2 1 1 1 2 2 3 3 3 3 3 2 2 1 1 1 1 1 1 1 1 1 1 1 1 1 1 1 1 1 1 0 0 0 0
0 0 0 0 0 0 1 1 1 1 2 2 2 2 2 2 2 2 2 2 3 3 3 4 3 3 2 2 1 1 1 1 1 1 1 1 1 1 1 1 1 1 1 1 1 1 0 0 0
0 0 0 0 0 0 1 1 1 1 1 2 2 2 2 2 2 2 2 2 3 3 4 4 4 3 2 2 2 2 2 1 1 1 1 1 2 1 1 1 1 1 1 1 1 1 1 1 1
0 0 0 0 0 1 1 2 2 2 2 3 3 3 3 3 3 3 2 2 2 3 5 6 5 4 3 3 2 2 2 2 2 2 2 2 2 2 2 1 1 1 1 1 1 1 1 1 1
0 0 0 0 0 1 1 2 2 3 3 3 3 3 3 4 5 4 3 2 3 4 5 6 6 4 4 3 3 3 2 2 2 2 2 2 2 2 2 1 1 1 1 1 1 1 1 1 1
0 0 0 0 0 1 1 2 3 3 3 3 3 3 4 4 5 4 4 3 3 4 5 6 6 6 5 4 3 3 3 2 2 2 3 2 2 2 2 2 2 2 2 2 1 1 1 1 1
0 0 0 0 1 1 2 2 3 3 3 3 4 4 4 5 4 4 5 5 5 5 5 6 8 8 7 5 4 4 3 3 3 3 3 2 2 2 2 2 2 2 2 2 2 2 2 2 2
0 0 0 1 1 2 2 3 3 3 3 4 5 5 5 5 4 4 5 7 8 7 6 7 9 11 9 7 6 6 5 4 4 3 3 3 3 3 2 3 3 3 3 2 2 2 2 2 2
0 0 1 1 1 2 3 3 3 2 3 5 5 5 5 4 4 4 5 7 9 8 7 8 10 12 11 9 8 8 6 5 5 4 4 4 4 3 3 4 5 4 3 3 2 2 3 3 3
0 1 1 1 1 2 3 3 3 3 4 6 5 4 4 4 4 4 6 7 8 9 8 8 11 14 14 11 9 8 7 6 6 5 6 5 5 4 4 5 5 5 4 4 3 3 4 4 4
1 1 1 1 1 1 2 2 3 3 5 6 5 3 3 3 4 5 6 7 8 8 9 10 13 15 15 12 10 9 9 8 7 7 6 6 6 6 6 7 7 6 5 5 4 4 4 4 4
1 1 1 1 1 1 1 1 2 3 4 4 4 3 3 3 4 5 7 8 9 10 11 12 14 15 15 13 12 12 12 11 10 9 8 7 7 8 9 9 9 7 6 6 4 4 4 4 3
0 0 1 1 1 1 1 1 2 3 4 3 2 3 4 4 5 6 8 9 10 11 12 13 14 15 16 14 13 13 14 13 12 11 11 9 9 9 10 10 10 9 7 5 4 3 3 3 3
0 0 0 1 1 1 1 1 2 3 3 2 2 3 5 6 6 7 9 10 12 12 12 13 14 15 16 16 14 14 15 14 12 12 13 13 11 9 8 8 9 8 5 3 3 3 3 3 2
0 0 0 0 1 1 1 2 3 3 3 2 3 4 5 6 7 8 10 11 12 12 13 14 15 16 17 17 16 15 14 13 13 14 17 16 12 8 6 6 6 5 3 3 3 3 3 3 2
0 0 0 1 1 1 2 3 4 4 3 3 3 4 4 5 7 9 10 11 11 12 14 16 17 19 20 20 19 18 17 16 16 17 18 16 11 6 5 5 4 3 3 3 3 2 3 3 3
0 0 1 1 1 1 3 4 4 3 3 2 2 2 3 4 7 9 10 10 10 12 16 18 18 21 24 25 24 22 20 18 17 16 15 12 8 5 4 3 3 3 3 2 2 2 2 2 2
0 0 1 1 1 1 3 3 3 3 3 3 2 2 3 5 8 9 9 10 11 13 16 17 18 21 24 27 26 22 19 16 14 12 11 10 7 5 3 3 3 3 3 2 2 2 1 2 2
0 0 0 0 0 1 2 2 2 3 3 3 3 3 3 5 9 10 10 10 10 11 13 13 15 18 21 24 24 19 15 13 12 11 12 11 9 6 4 3 3 3 3 2 2 2 1 1 2
0 0 0 0 0 1 1 2 2 3 3 4 4 4 4 6 10 12 11 10 9 9 11 11 12 13 17 21 22 19 15 12 12 12 12 11 10 7 5 3 3 3 2 2 2 2 2 2 2
0 0 0 0 0 0 0 1 2 3 3 4 4 5 6 8 10 11 10 9 9 9 10 9 9 10 14 20 24 23 18 13 11 10 10 10 10 8 5 3 3 3 2 3 3 2 2 2 2
0 0 0 0 0 0 0 1 2 3 3 4 5 6 7 8 8 7 8 9 9 9 9 8 8 9 12 18 24 25 19 12 9 9 9 9 9 7 5 3 3 3 3 3 2 2 2 3 3
0 0 0 0 0 0 0 1 2 3 3 4 5 6 6 6 5 5 7 9 10 8 8 8 8 9 10 13 18 20 16 10 8 8 8 7 6 5 4 3 3 3 2 2 2 2 2 3 3
0 0 0 0 0 0 0 1 2 3 4 5 5 5 4 4 4 5 8 9 9 7 7 8 8 8 8 9 11 13 12 8 7 6 7 6 5 4 4 4 4 3 2 2 2 2 2 2 3
0 0 0 0 0 0 0 1 3 4 5 5 5 4 4 4 5 6 8 8 7 6 7 8 7 7 6 7 8 8 8 6 6 5 6 6 5 4 4 4 4 3 2 2 2 2 2 2 2
0 0 0 0 0 0 0 1 3 4 5 4 4 3 3 3 4 6 6 6 6 6 6 7 6 6 6 6 7 7 6 6 5 5 5 5 5 5 4 4 3 3 2 2 2 1 1 2 2
0 0 0 0 0 0 0 1 2 4 4 3 3 2 2 3 4 5 5 5 5 5 5 5 5 4 5 5 5 6 6 6 5 5 4 4 5 5 5 4 3 3 2 2 1 1 1 1 1
0 0 0 0 1 1 1 1 2 3 4 4 3 2 3 3 3 4 5 5 6 5 5 4 3 3 4 4 4 5 5 5 5 5 4 4 4 5 4 4 3 3 2 2 2 1 1 1 1
Wind_Speed
8 11 10 8 8 8 11 7 4 3 6 7 6 7 9 10 8 9 7 11 18 18 16 15 14 12 12 11 10 10 9 9 9 8 8 7 7 7 6 6 5 5 4 4 4 3 3 2 2
9 12 9 7 8 8 8 4 1 6 7 6 6 6 8 10 10 11 9 12 18 17 15 14 15 13 12 11 10 10 9 9 8 8 8 7 7 6 6 5 5 4 3 3 2 2 2 1 2
12 14 8 8 10 10 7 2 3 7 6 4 6 7 7 8 8 8 11 13 16 16 14 15 15 13 12 11 10 10 9 9 8 8 8 7 6 6 5 5 4 3 2 1 1 1 1 2 2
9 9 8 9 11 10 7 3 2 4 4 4 5 6 8 8 7 10 13 13 16 15 15 15 14 13 12 11 11 10 9 9 8 8 7 7 6 5 4 4 3 2 2 1 1 1 2 2 3
9 8 11 11 10 8 4 2 1 1 3 3 5 7 8 9 11 12 12 13 14 15 15 15 14 13 12 11 11 10 9 9 8 8 7 6 6 5 4 3 2 2 2 2 2 2 3 3 4
8 8 11 10 10 7 4 2 1 0 3 1 4 5 6 9 11 11 12 11 12 14 15 14 15 14 12 11 11 10 9 9 8 7 7 6 5 5 4 3 2 2 2 3 3 4 4 5 5
10 10 12 12 9 6 2 2 2 1 2 2 2 4 7 9 10 10 11 10 12 14 15 13 12 12 12 11 11 10 9 9 8 7 6 6 6 5 5 4 3 3 3 4 4 5 5 6 7
10 11 14 12 9 5 1 1 1 1 2 2 2 3 7 10 10 9 9 9 11 12 13 13 12 11 10 10 11 10 10 9 8 8 7 7 7 7 7 6 5 5 5 5 6 6 7 8 9
13 11 12 11 8 3 1 1 1 3 1 1 2 5 12 14 11 11 9 7 9 10 9 11 11 10 10 10 11 11 10 9 8 7 8 7 6 6 7 7 7 8 8 8 8 9 9 10 11
11 10 12 9 6 4 3 2 2 1 1 1 5 9 14 14 12 11 10 9 8 9 9 7 9 9 8 7 8 7 7 7 7 5 6 5 4 4 5 7 9 10 10 10 10 11 11 10 6
11 12 9 7 5 6 4 3 3 2 2 2 6 9 11 12 11 10 9 8 8 7 7 7 7 6 6 5 6 4 4 5 6 6 5 4 4 3 2 2 5 6 9 6 6 8 6 5 3
10 10 8 6 5 4 5 5 3 2 2 2 5 7 9 9 8 8 8 7 8 7 7 6 7 5 3 3 3 3 3 3 3 4 4 3 2 2 1 1 2 3 3 3 3 3 4 3 4
10 9 7 5 5 3 4 5 3 1 3 4 3 5 8 8 7 8 7 8 7 7 7 6 6 5 4 2 1 2 2 2 2 2 2 2 2 1 1 1 1 2 1 1 2 3 3 3 4
8 7 7 7 6 6 6 5 4 2 4 4 4 5 7 7 7 7 7 7 7 7 6 5 5 5 4 3 2 1 1 2 1 2 2 1 0 0 1 1 2 2 1 1 2 3 3 3 3
8 9 9 9 9 8 6 5 4 2 5 6 6 6 6 5 6 6 6 6 7 7 6 5 5 5 4 3 3 2 1 1 1 2 2 1 0 0 1 2 2 1 3 3 2 3 3 3 3
11 12 10 9 10 7 7 6 2 2 4 5 6 5 5 5 5 5 6 6 6 6 6 5 5 6 4 3 2 1 1 1 1 2 2 2 1 1 1 2 1 1 3 2 2 2 2 3 3
10 9 9 8 7 6 6 5 3 3 3 4 5 5 5 5 4 4 6 7 6 6 6 5 4 5 4 4 3 2 1 1 1 1 2 2 2 2 1 1 1 2 2 2 3 1 2 3 4
8 8 8 6 3 4 6 5 3 3 2 2 3 5 5 5 6 6 6 7 6 6 5 5 5 5 4 3 2 2 2 1 1 1 2 2 2 2 1 2 1 2 2 2 2 3 3 3 4
9 8 7 6 5 4 5 4 3 2 2 2 2 2 3 4 6 6 7 7 7 6 6 5 5 5 4 3 3 2 2 2 2 2 2 2 1 1 2 2 1 1 1 2 3 3 4 3 3
8 8 8 6 6 6 5 5 3 4 4 3 3 2 2 4 5 6 6 7 6 6 6 5 5 5 4 3 2 2 1 1 2 1 2 2 1 2 2 1 2 1 1 3 3 3 3 4 3
8 7 8 9 8 7 6 6 4 5 4 4 3 3 2 5 6 6 5 5 5 5 5 4 4 5 4 4 3 1 1 1 1 2 2 2 2 2 2 2 2 2 2 2 2 3 3 4 4
8 8 10 11 10 7 8 5 5 6 5 4 2 2 1 2 6 5 5 4 4 4 5 4 4 4 4 4 4 4 3 2 2 1 2 2 3 3 3 2 2 2 2 2 3 2 3 4 4
8 10 12 12 12 10 7 6 3 5 4 4 3 2 1 2 4 5 5 5 4 4 4 4 4 3 3 3 3 3 2 1 1 1 2 2 3 3 3 2 2 2 2 2 3 3 3 3 4
8 11 12 12 10 9 7 7 2 2 3 5 4 2 2 2 4 4 4 5 5 4 4 4 4 3 3 3 3 3 2 2 1 2 2 2 2 2 2 2 2 2 2 2 3 3 4 3 4
8 8 7 6 6 6 6 4 2 4 4 6 5 3 4 4 5 4 4 4 5 4 4 4 4 2 2 3 3 3 3 3 3 3 2 2 2 2 1 2 2 2 2 3 3 3 3 3 4
8 6 5 7 7 7 8 2 5 8 8 9 7 6 7 6 5 5 5 5 4 4 4 4 3 3 2 1 2 2 2 2 2 1 2 2 2 1 1 2 2 2 3 3 2 3 3 3 3
8 6 7 8 9 9 6 1 5 8 10 9 8 6 6 5 5 5 5 5 5 4 4 3 2 2 2 1 1 2 2 2 2 2 3 2 1 2 1 1 2 3 3 3 3 2 3 3 3
8 8 6 6 7 7 7 4 2 6 6 6 5 5 7 6 5 4 4 4 4 4 3 3 3 2 1 1 1 1 2 2 2 3 3 2 1 1 2 2 2 2 3 2 2 3 2 3 3
9 8 7 6 7 8 7 3 4 6 5 5 5 5 5 5 4 4 4 4 3 3 3 2 2 1 1 1 1 1 1 2 2 2 2 1 1 1 2 2 2 2 3 2 2 4 3 3 3
7 7 7 6 6 8 7 3 5 6 6 5 5 4 5 5 4 4 4 4 3 3 2 1 1 1 1 1 1 1 0 1 2 2 2 1 1 1 1 2 2 3 3 2 3 4 3 3 4
Wind_Direction
247 247 242 249 244 244 257 255 258 54 69 68 56 50 53 45 59 96 123 114 111 118 124 126 124 124 126 127 128 129 129 130 130 131 132 131 128 127 124 121 118 113 106 99 93 85 73 59 47
255 250 245 247 252 252 261 268 352 70 65 71 67 61 63 63 74 102 110 111 115 122 131 127 128 128 130 128 128 130 132 133 134 135 135 136 134 132 129 128 125 119 110 100 91 77 55 27 7
261 256 253 245 243 253 268 354 52 85 86 81 70 58 54 72 82 101 115 121 117 120 122 125 132 131 132 132 133 135 138 140 140 141 139 139 138 137 137 139 136 134 129 120 100 58 360 336 328
250 235 238 248 252 259 278 320 31 72 82 80 83 75 77 75 94 110 122 124 122 126 126 130 133 133 136 138 140 140 141 143 145 147 146 146 146 145 146 149 154 158 166 192 241 287 302 306 307
241 247 241 248 256 262 254 279 324 57 62 51 88 94 95 95 105 116 128 132 135 133 128 134 136 137 140 143 143 144 144 145 149 153 154 155 154 153 155 163 175 187 207 234 258 278 287 286 289
238 244 251 253 252 246 238 202 232 176 102 112 99 103 98 114 119 129 134 140 136 132 129 135 142 143 144 147 147 147 148 150 155 159 159 161 163 161 166 174 194 215 246 263 272 279 278 275 275
249 261 263 262 255 244 242 262 258 337 84 66 88 103 120 126 127 137 138 141 136 130 130 143 147 149 150 151 152 152 153 155 158 160 164 167 171 175 184 191 208 232 247 261 269 273 275 272 269
250 269 270 267 260 252 199 234 94 38 39 63 103 125 135 133 137 136 140 142 139 135 140 148 150 154 158 158 160 160 160 160 164 168 175 186 193 200 206 202 203 223 237 246 255 262 265 266 264
244 257 266 267 267 281 309 294 83 104 94 40 83 115 127 137 143 143 146 146 133 132 139 148 149 157 167 165 161 165 168 171 175 184 194 205 213 207 205 206 198 215 227 237 245 253 257 260 257
231 250 265 283 302 311 319 334 286 170 184 182 94 111 132 143 152 153 153 153 147 148 148 147 147 157 169 165 153 173 179 174 190 189 192 207 221 225 214 183 203 216 228 237 241 249 257 255 252
230 245 268 287 297 311 320 296 285 264 231 175 133 138 143 149 153 155 155 154 154 155 147 146 149 155 160 148 158 174 178 168 190 192 193 209 222 223 208 183 196 217 230 234 237 242 244 251 262
240 247 262 289 295 301 303 293 295 313 352 86 130 141 142 152 157 160 154 154 153 152 154 156 149 146 148 145 162 174 173 168 185 174 194 208 221 233 215 223 217 221 222 221 240 245 243 260 266
249 252 256 257 270 263 260 269 281 31 77 82 112 144 157 168 166 163 157 151 155 155 162 156 147 139 134 134 178 159 159 162 173 158 170 230 224 229 242 253 256 267 270 246 252 270 279 273 273
260 262 264 260 252 240 242 254 249 184 135 136 157 187 178 171 167 159 154 158 159 154 154 155 147 134 137 146 163 161 161 157 172 139 148 238 248 150 267 246 259 271 288 281 273 282 279 271 273
264 258 249 245 245 240 244 259 253 187 167 164 175 185 172 170 166 161 156 154 154 148 146 147 146 138 148 162 187 172 179 172 153 128 145 150 168 246 275 260 240 286 283 265 255 273 275 270 273
251 251 248 242 233 222 235 246 228 191 191 172 182 177 162 159 167 153 146 135 138 144 145 152 162 150 156 160 179 173 180 161 153 154 151 156 195 226 270 277 278 281 276 276 272 265 294 293 290
246 254 254 249 235 229 232 236 192 218 206 180 173 160 150 152 161 143 140 130 130 133 142 150 149 150 162 166 170 178 159 173 183 164 151 163 197 225 243 284 282 277 279 288 294 322 299 290 288
282 280 277 281 247 241 251 238 204 214 187 179 169 157 159 157 149 144 138 135 137 141 142 154 154 153 159 163 167 182 181 190 183 155 150 163 213 237 241 253 259 291 293 300 304 296 272 272 279
278 287 287 289 277 255 242 235 213 204 201 202 190 177 154 159 146 140 142 143 146 150 153 156 162 158 163 170 181 189 195 199 181 185 168 178 220 259 270 269 271 266 272 292 290 285 283 277 277
281 291 296 296 293 284 263 254 212 178 186 187 190 151 171 156 139 137 141 147 152 156 157 161 166 166 170 164 170 196 193 201 178 163 150 180 205 246 249 252 266 261 276 277 280 289 292 293 288
298 299 307 299 288 276 273 257 206 169 161 156 155 148 203 169 157 148 142 139 141 147 152 166 162 161 167 163 168 184 188 213 186 173 174 187 205 229 260 244 259 274 260 272 289 286 281 283 285
305 304 290 281 279 269 261 265 196 172 161 142 137 126 140 150 144 144 144 141 141 137 137 144 152 160 167 172 177 194 205 207 202 187 170 191 219 222 230 240 250 268 270 271 274 273 282 280 284
300 303 292 281 272 267 256 265 216 156 154 128 82 30 56 84 125 135 141 134 131 131 129 135 148 153 164 178 175 192 214 209 191 182 183 208 217 217 226 228 244 256 263 265 282 289 276 275 279
301 296 287 274 272 266 263 260 225 138 129 115 102 61 28 87 104 102 113 120 118 116 113 118 131 140 160 181 177 196 205 208 205 220 222 233 233 229 232 235 243 263 267 262 261 271 276 276 280
315 316 309 296 277 277 276 263 97 95 89 95 106 100 62 68 78 82 95 104 107 106 112 120 125 138 161 183 178 193 212 220 219 226 235 248 249 242 239 269 252 258 256 255 259 267 272 278 280
308 300 301 298 299 299 290 284 99 90 89 81 80 77 69 57 56 60 66 71 83 98 108 112 125 133 138 157 170 187 204 233 239 251 271 262 263 265 256 257 259 264 266 269 263 268 269 272 277
300 300 304 297 295 288 286 119 103 82 78 73 69 66 64 58 56 57 65 65 70 75 84 98 110 117 123 132 148 193 215 239 249 254 256 265 280 276 281 263 270 274 274 272 271 258 265 274 272
306 323 327 311 308 297 294 315 56 94 81 80 75 66 60 48 45 58 59 59 69 73 72 83 90 107 125 148 206 222 230 246 244 256 260 261 265 286 289 276 278 282 282 281 281 278 256 260 269
329 334 331 320 313 310 303 333 63 93 91 87 72 62 64 51 41 43 55 54 64 76 78 73 84 104 134 183 208 246 260 274 270 267 263 261 274 269 271 277 273 274 275 275 271 271 267 262 264
337 331 324 315 307 305 301 333 61 90 88 82 76 60 53 45 45 47 42 54 50 48 56 75 129 172 191 191 175 171 231 292 287 284 284 290 274 272 278 273 267 270 274 268 267 271 275 273 273